Kosmos-972

operational
NORAD ID: 10539 Int'l Des: 1977-123 Owner: YUZH Country: SU
LEO

Kosmos-972について

説明を読み込み中...

リアルタイム位置

3D地球を読み込み中...

次回通過

高度履歴

Altitude vs Time

uPlot chart will show altitude changes over time

軌道要素

1 10539U 77123A 26061.64532631 .00000097 00000-0 61107-4 0 9998
2 10539 75.8316 266.9983 0301539 70.4284 292.9143 13.89153035441253
Epoch: Mar 2, 2026 • Age: 41 hours

現在のステータス

高度 1000.9 km
速度 7.32 km/s
衛星直下点 2.34°N, 35.78°E
打ち上げ日 Dec 27, 1977
運用期間 48.1 years
タイプ other

技術仕様

分類 Payload
質量 1700.00 kg
乾燥質量 1700.00 kg
総質量 1700.00 kg
長さ 3.20 m
直径 1.30 m
スパン 3.20 m
形状 Cyl
製造者 YUZH
バスタイプ GVM
フェーズステータス In Orbit
所有者/国 YUZH/SU

大規模コンステレーション

Loading constellations...